ED2YAA-3 Weather Reports


Display with metric or nautical units.
time (UTC)temp
F
wind
direction
speed
MPH
gust
MPH
rain 1hr
in
rain 24hr
in
rain mn
in
humidity
%
barometer
mb
20260504010257 58 338 0.0 0.0 0.00 0.00 0.00 86 992.0
20260504003509 58 338 0.0 0.0 0.00 0.00 0.00 86 992.3
20260504000257 58 338 0.0 0.0 0.00 0.00 0.00 86 992.6
20260503233511 58 338 0.0 0.0 0.00 0.00 0.00 86 992.6
20260503230315 58 338 0.0 0.0 0.00 0.00 0.00 86 992.6
20260503224215 58 338 0.0 0.0 0.00 0.00 0.00 86 992.9
20260503223530 58 338 0.0 0.0 0.00 0.00 0.00 86 992.8
20260503214215 59 135 0.0 0.0 0.00 0.00 0.00 85 992.6
20260503213529 59 135 0.0 0.0 0.00 0.00 0.00 84 992.6
20260503204214 60 338 0.0 0.0 0.00 0.00 0.00 84 991.0
20260503203529 60 338 0.0 0.0 0.00 0.00 0.00 83 991.0
20260503194214 60 338 0.0 0.0 0.00 0.00 0.00 82 990.6
20260503193530 61 338 0.0 0.0 0.00 0.00 0.00 81 990.6
20260503184215 61 338 0.0 0.0 0.00 0.00 0.00 81 990.5
20260503183530 61 338 0.0 0.0 0.00 0.00 0.00 81 990.4
20260503174215 62 90 0.0 0.0 0.00 0.00 0.00 79 989.7
20260503173530 62 90 0.0 0.0 0.00 0.00 0.00 79 989.8
20260503070302 69 338 0.0 0.0 0.00 0.00 0.00 74 992.2
20260503060302 56 338 0.0 0.0 0.00 0.00 0.00 90 992.3
20260503053527 55 338 0.0 0.0 0.00 0.00 0.00 90 992.0
20260503050302 55 338 0.0 0.0 0.00 0.00 0.00 90 992.0
20260503043529 55 338 0.0 0.0 0.00 0.00 0.00 90 991.9
20260503040301 55 338 0.0 0.0 0.00 0.00 0.00 90 991.9
20260503033528 55 68 0.0 0.0 0.00 0.00 0.00 89 992.0
20260503030301 55 68 0.0 0.0 0.00 0.00 0.00 89 992.2
20260503023528 56 0 0.0 0.0 0.00 0.00 0.00 89 992.1
20260503020301 56 135 0.0 0.0 0.00 0.00 0.00 88 992.7
20260503013528 57 68 0.0 0.0 0.00 0.00 0.00 88 992.7